Location: Pic du Midi - T1M
(42.9366°N, 0.1426°E)
Time: 05:52:41
(UTC+01:00)

Nauka - Pass Details

Date: 29 September 2021
Orbit: 417 x 423 km, 51.6° (Epoch: 19 October)

Event Time Altitude Azimuth Distance (km) Brightness Sun altitude
Rises 20:48:37 0° 305° (NW) 2,358 ? -23.3°
Reaches altitude 10° 20:50:47 10° 313° (NW) 1,494 ? -23.7°
Enters shadow 20:52:50 30° 337° (NNW) 784 ? -24.0°
